ARIANE 2 DEB, 28565

Orbit data source: Space-Track

ARIANE 2 DEB, 28565 is space debris in HEO originally from a launch on Fri, 27 Jan 1989 UTC launched from the French Guiana (FRGUI). Debris objects in space refer to the collection of defunct objects orbiting the Earth. Examples of debris include non-operational satellites, rocket bodies, and fragments generated from explosions, collisions, or faulty payload assembly.

Loading next visibility...
Identifier
28565, 1989-006AG
Orbit
HEO
Country
Flag of FRFR
Related business
Manufacturer
EADS/LV
Mission
Spacecraft
Bus & Motor
Unknown
Mass
Unknown
Launch date (UTC)
1989-01-27 (37 years ago)
Launch vehicle
Unknown
Launch site
French Guiana (FRGUI)
Object type
Payload
Rocket body
Debris
Shape & HBR
Unknown shape, 0.3 m
Radar Cross Section
Medium (>0.1 m² and <1 m²)

Expand to show TLE details & history
Last TLE update: 14 hours ago

TLE from 14 hours ago
0 ARIANE 2 DEB
1 28565U 89006AG  25346.69362344  .00001207  00000-0  74690-2 0  9994
2 28565   8.4645  20.7295 7088495 187.3861 149.7280  2.39462065186132
Epoch: 2025-12-12T16:38Z
TLE epoch observation values (Epoch: 2025-12-12T16:38:49.065Z)
Latitude
0.00002°
Longitude
49.39015°
Altitude
33,131.006 km
Speed
1.813 km/s
True Right ascension
01h 22m 54s
True Declination
0° 00' 00"
Sunlit
Object was in daylight at epoch
Visualization orbit readout
Latitude
Unknown
Longitude
Unknown
Altitude
Unknown
Speed
Unknown
Apparent Right ascension
Unknown
Apparent Declination
Unknown
Sunlit
N/A
Visualization observer readout
Local Sidereal Time
05:22:58
Azimuth
Unknown
Elevation
Unknown
Doppler factor
Unknown
Orbital elements
Apogee altitude
33,959.407 km
Perigee altitude
494.496 km
Semi-major axis
23,605.089 km
Eccentricity
0.70885
Inclination
8.4645°
RAAN
20.7295°
Arg. of periapsis
187.3861°
True anomaly
172.58914°
Mean anomaly
149.728°
Eccentric anomaly
162.16629°
Mean motion
0.59846 °/min
Orbital period
601.54 mins
BSTAR
0.007469
Loading maneuver chart data...
Computing Atmospheric mass density...
Loading historical data...
Loading historical data...
Loading historical data...
Loading historical data...
Loading historical data...
Loading historical data...
Loading historical data...

Documentation

Showing up to 5 results
|